IGO164F VOMM-VIDP

Flight info

Callsign IGO164F
Flight time N/A
Altitude 34000
Route KAMGU2A KAMGU Q24 BAVOX BAVOX7G
Aircraft A21N/M-SDE2E3FGHIRWXY/LB1

Departure

Time 2026-05-09 07:34
Airport Chennai International Airport (VOMM)

Arrival

Time N/A
Airport Indira Gandhi International Airport (VIDP)
Time Latitude Longitude Altitude Speed Heading
2026-05-09 06:59 12.98493 80.16672 58 ft 0 kts 159°
2026-05-09 07:25 12.98496 80.16670 61 ft 3 kts 159°
2026-05-09 07:26 12.98516 80.16662 61 ft 4 kts 158°
2026-05-09 07:26 12.98533 80.16661 59 ft 4 kts 194°
2026-05-09 07:26 12.98554 80.16673 55 ft 4 kts 235°
2026-05-09 07:26 12.98561 80.16687 58 ft 0 kts 249°
2026-05-09 07:29 12.98560 80.16684 57 ft 1 kts 249°
2026-05-09 07:30 12.98554 80.16667 54 ft 4 kts 250°
2026-05-09 07:30 12.98542 80.16635 61 ft 6 kts 250°
2026-05-09 07:30 12.98525 80.16588 54 ft 8 kts 249°
2026-05-09 07:30 12.98502 80.16526 60 ft 10 kts 252°
2026-05-09 07:31 12.98474 80.16450 59 ft 13 kts 249°
2026-05-09 07:31 12.98441 80.16359 58 ft 15 kts 250°
2026-05-09 07:31 12.98405 80.16256 58 ft 16 kts 250°
2026-05-09 07:31 12.98365 80.16143 59 ft 17 kts 250°
2026-05-09 07:32 12.98320 80.16023 58 ft 19 kts 248°
2026-05-09 07:32 12.98290 80.15898 60 ft 14 kts 285°
2026-05-09 07:32 12.98316 80.15812 56 ft 13 kts 289°
2026-05-09 07:32 12.98347 80.15715 55 ft 15 kts 284°
2026-05-09 07:33 12.98374 80.15606 57 ft 17 kts 284°
2026-05-09 07:33 12.98485 80.15483 61 ft 13 kts 66°
2026-05-09 07:33 12.98521 80.15574 56 ft 15 kts 69°
2026-05-09 07:34 12.98591 80.15763 54 ft 58 kts 70°
2026-05-09 07:34 12.98828 80.16402 58 ft 132 kts 69°
2026-05-09 07:34 12.99242 80.17499 91 ft 197 kts 68°
2026-05-09 07:34 12.99797 80.18946 721 ft 232 kts 68°
2026-05-09 07:35 13.00437 80.20507 1773 ft 245 kts 61°
2026-05-09 07:35 13.01550 80.21850 2701 ft 252 kts 35°
2026-05-09 07:35 13.03206 80.22568 3641 ft 271 kts
2026-05-09 07:35 13.05133 80.22421 4689 ft 289 kts 343°
2026-05-09 07:36 13.07029 80.21594 5776 ft 302 kts 336°
2026-05-09 07:36 13.08964 80.20634 6849 ft 315 kts 336°
2026-05-09 07:36 13.11100 80.20010 7904 ft 327 kts 356°
2026-05-09 07:36 13.13402 80.20187 8996 ft 340 kts 13°
2026-05-09 07:37 13.15738 80.20815 10101 ft 355 kts 18°
2026-05-09 07:37 13.18149 80.21567 11048 ft 370 kts 18°
2026-05-09 07:37 13.20635 80.22371 11763 ft 375 kts 19°
2026-05-09 07:37 13.23095 80.23172 12339 ft 372 kts 19°
2026-05-09 07:38 13.25548 80.23973 13113 ft 362 kts 19°
2026-05-09 07:38 13.27999 80.24623 13982 ft 367 kts
2026-05-09 07:38 13.30544 80.24739 14829 ft 373 kts
2026-05-09 07:38 13.33187 80.24568 15733 ft 379 kts 355°
2026-05-09 07:39 13.35826 80.24273 16630 ft 385 kts 354°
2026-05-09 07:39 13.38509 80.23955 17531 ft 392 kts 354°
2026-05-09 07:39 13.41243 80.23608 18349 ft 399 kts 351°
2026-05-09 07:39 13.43984 80.23114 19027 ft 403 kts 349°
2026-05-09 07:40 13.46720 80.22563 19766 ft 408 kts 349°
2026-05-09 07:40 13.49559 80.21977 20552 ft 413 kts 349°
2026-05-09 07:40 13.52390 80.21385 21346 ft 418 kts 349°
2026-05-09 07:40 13.55256 80.20779 22138 ft 424 kts 349°
2026-05-09 07:41 13.58169 80.20161 22935 ft 430 kts 349°
2026-05-09 07:41 13.61125 80.19534 23662 ft 436 kts 349°
2026-05-09 07:41 13.64110 80.18906 24272 ft 440 kts 349°
2026-05-09 07:41 13.67082 80.18095 24865 ft 444 kts 341°
2026-05-09 07:42 13.70007 80.17032 25451 ft 447 kts 336°
2026-05-09 07:42 13.72810 80.15624 26027 ft 450 kts 331°
2026-05-09 07:42 13.75546 80.14047 26602 ft 453 kts 329°
2026-05-09 07:42 13.78285 80.12408 27161 ft 458 kts 329°
2026-05-09 07:43 13.81039 80.10743 27702 ft 462 kts 329°
2026-05-09 07:43 13.83822 80.09066 28222 ft 465 kts 329°
2026-05-09 07:43 13.86631 80.07386 28719 ft 469 kts 329°
2026-05-09 07:43 13.89478 80.05686 29196 ft 473 kts 329°
2026-05-09 07:44 13.92303 80.04012 29645 ft 477 kts 329°
2026-05-09 07:44 13.95193 80.02299 30025 ft 481 kts 329°
2026-05-09 07:44 13.98105 80.00575 30335 ft 486 kts 329°
2026-05-09 07:44 14.01081 79.98816 30615 ft 490 kts 329°
2026-05-09 07:45 14.03054 79.97652 30775 ft 493 kts 329°
2026-05-09 07:45 14.07056 79.95300 31065 ft 498 kts 329°
2026-05-09 07:45 14.09060 79.94127 31184 ft 500 kts 329°
2026-05-09 07:45 14.13115 79.91748 31361 ft 506 kts 329°
2026-05-09 07:46 14.16134 79.89944 31805 ft 509 kts 327°
2026-05-09 07:46 14.18185 79.88710 32422 ft 502 kts 327°
2026-05-09 07:46 14.21187 79.86948 33264 ft 490 kts 328°
2026-05-09 07:46 14.24138 79.85264 33750 ft 486 kts 327°
2026-05-09 07:47 14.27091 79.83517 33859 ft 491 kts 328°
2026-05-09 07:47 14.33076 79.79988 33796 ft 506 kts 328°
2026-05-09 07:48 0.00000 0.00000 1067 ft 0 kts 355°